This is the latest recevied weather packets stored in our database for station/object WX6HNX-5. If no packets are shown the sender has not sent any weather packets the latest 1 day(s).
| Time | Temp. | Humidity | Pressure | Rain* | Wind** | Luminosity | Snow |
|---|---|---|---|---|---|---|---|
| 1777985863 | 14.44° C | 68% | 1013.1 hPa | 0 mm | 0.89 m/s, 311° | - | - |
| 1777985561 | 14.44° C | 68% | 1013.1 hPa | 0 mm | 1.34 m/s, 298° | - | - |
| 1777985261 | 14.44° C | 68% | 1013.1 hPa | 0 mm | 0.89 m/s, 278° | - | - |
| 1777984961 | 14.44° C | 68% | 1013 hPa | 0 mm | 1.34 m/s, 282° | - | - |
| 1777984661 | 14.44° C | 67% | 1013 hPa | 0 mm | 1.34 m/s, 285° | - | - |
| 1777984361 | 14.44° C | 68% | 1012.9 hPa | 0 mm | 0.89 m/s, 281° | - | - |
| 1777983763 | 14.44° C | 69% | 1012.9 hPa | 0 mm | 0.89 m/s, 305° | - | - |
| 1777983162 | 14.44° C | 69% | 1012.9 hPa | 0 mm | 0.89 m/s, 307° | - | - |
| 1777982863 | 14.44° C | 69% | 1012.8 hPa | 0 mm | 1.34 m/s, 317° | - | - |
| 1777982562 | 14.44° C | 68% | 1012.8 hPa | 0 mm | 1.34 m/s, 314° | - | - |
| 1777981984 | 14.44° C | 67% | 1012.8 hPa | 0 mm | 1.34 m/s, 316° | - | - |
| 1777981682 | 14.44° C | 65% | 1012.8 hPa | 0 mm | 0.89 m/s, 325° | - | - |
| 1777981384 | 14.44° C | 65% | 1012.8 hPa | 0 mm | 0.89 m/s, 314° | - | - |
| 1777981083 | 14.44° C | 64% | 1012.7 hPa | 0 mm | 1.34 m/s, 319° | - | - |
| 1777980782 | 14.44° C | 64% | 1012.7 hPa | 0 mm | 1.34 m/s, 320° | - | - |
| 1777980482 | 14.44° C | 64% | 1012.7 hPa | 0 mm | 0.89 m/s, 321° | - | - |
| 1777980183 | 14.44° C | 64% | 1012.7 hPa | 0 mm | 1.34 m/s, 311° | - | - |
| 1777979882 | 14.44° C | 64% | 1012.7 hPa | 0 mm | 1.79 m/s, 312° | - | - |
| 1777979582 | 14.44° C | 64% | 1012.7 hPa | 0 mm | 1.34 m/s, 325° | - | - |
| 1777979283 | 14.44° C | 64% | 1012.7 hPa | 0 mm | 0.89 m/s, 322° | - | - |
| 1777978982 | 14.44° C | 64% | 1012.7 hPa | 0 mm | 1.34 m/s, 322° | - | - |
| 1777978683 | 14.44° C | 63% | 1012.8 hPa | 0 mm | 0.89 m/s, 317° | - | - |
| 1777978082 | 14.44° C | 63% | 1012.7 hPa | 0 mm | 0.89 m/s, 324° | - | - |
| 1777977783 | 14.44° C | 63% | 1012.7 hPa | 0 mm | 0 m/s | - | - |
| 1777977482 | 14.44° C | 63% | 1012.7 hPa | 0 mm | 0.45 m/s, 321° | - | - |
* Rain latest hour (hover to see other rain measurements)
** Current wind speed in m/s (hover to see current wind gust speed)